Notices

What's New in latest Release from April 7th, 2021:

- Updated Glossary, including Speed of Maximum Gust, and Total Hourly Precipitation

- Updated national and regional climate services offices contacts and prices information

- Addition of station inventory lists for 1981-2010, 1971-2000, and 1961-1990 Normals.

If you haven't already, please take our survey and provide feedback about our website: https://eccc.sondage-survey.ca/f/LanguageSelection.aspx?s=442ca660-fcf1-47c0-95a9-59707d6fd709

Hourly Data Report for October 07, 2019

PINAWA
MANITOBA
Current Station Operator: ECCC - MSC

50°10'38.020" N
96°03'53.000" W
268.00 m
503B1ER
71448
WEA

Download Data

Hourly Data (October 2019)
Hourly Data Report for October 7, 2019
TIME
LST
Temp Definition
°C
Dew Point Definition
°C
Rel Hum Definition
%
Precip. Amount Definition
mm

Wind Dir Definition
10's deg

Wind Spd Definition
km/h
Visibility Definition
km
Stn Press Definition
kPa
Hmdx Definition


Wind Chill Definition


Weather Definition


00:00 5.2 LegendMM LegendMM LegendMM 28 10   97.98     LegendNANA
01:00 5.0 LegendMM LegendMM LegendMM 28 9   98.03     LegendNANA
02:00 4.5 LegendMM LegendMM LegendMM 28 11   98.06     LegendNANA
03:00 3.7 LegendMM LegendMM LegendMM 26 7   98.13     LegendNANA
04:00 3.1 LegendMM LegendMM LegendMM 25 4   98.19     LegendNANA
05:00 2.1 LegendMM LegendMM LegendMM 23 3   98.25     LegendNANA
06:00 2.0 LegendMM LegendMM LegendMM 24 4   98.28     LegendNANA
07:00 2.4 LegendMM LegendMM LegendMM 19 4   98.26     LegendNANA
08:00 3.2 LegendMM LegendMM LegendMM 19 4   98.29     LegendNANA
09:00 7.2 LegendMM LegendMM LegendMM 19 3   98.28     LegendNANA
10:00 10.4 LegendMM LegendMM LegendMM 19 7   98.24     LegendNANA
11:00 12.2 LegendMM LegendMM LegendMM 21 6   98.20     LegendNANA
12:00 14.1 LegendMM LegendMM LegendMM 19 9   98.14     LegendNANA
13:00 15.6 LegendMM LegendMM LegendMM 20 7   98.04     LegendNANA
14:00 17.0 LegendMM LegendMM LegendMM 21 9   97.95     LegendNANA
15:00 17.3 LegendMM LegendMM LegendMM 18 8   97.90     LegendNANA
16:00 16.9 LegendMM LegendMM LegendMM 19 11   97.87     LegendNANA
17:00 16.0 LegendMM LegendMM LegendMM 17 8   97.83     LegendNANA
18:00 13.8 LegendMM LegendMM LegendMM 16 8   97.77     LegendNANA
19:00 12.6 LegendMM LegendMM LegendMM 16 10   97.73     LegendNANA
20:00 11.9 LegendMM LegendMM LegendMM 16 12   97.69     LegendNANA
21:00 11.4 LegendMM LegendMM LegendMM 16 11   97.66     LegendNANA
22:00 10.7 LegendMM LegendMM LegendMM 16 11   97.60     LegendNANA
23:00 10.2 LegendMM LegendMM LegendMM 16 10   97.53     LegendNANA

Notes on Data Quality.

Legend

  • E = Estimated
  • M = Missing
  • NA = Not Available*
  • [empty] = Indicates an unobserved value
Date modified: